TimeCDT,TemperatureF,Dew PointF,Humidity,Sea Level PressureIn,VisibilityMPH,Wind Direction,Wind SpeedMPH,Gust SpeedMPH,PrecipitationIn,Events,Conditions,WindDirDegrees,DateUTC
12:45 AM,80.6,71.6,74,29.89,7.0,ENE,5.8,-,N/A,,Clear,70,2012-10-22 05:45:00
1:44 AM,80.6,73.4,79,29.91,7.0,NE,9.2,-,N/A,,Clear,40,2012-10-22 06:44:00
2:43 AM,80.6,73.4,79,29.88,7.0,NE,9.2,-,N/A,,Clear,40,2012-10-22 07:43:00
3:46 AM,78.8,73.4,83,29.86,7.0,NNE,5.8,-,N/A,,Partly Cloudy,30,2012-10-22 08:46:00
4:45 AM,78.8,73.4,83,29.88,7.0,NNE,5.8,-,N/A,,Scattered Clouds,30,2012-10-22 09:45:00
5:44 AM,78.8,73.4,83,29.88,7.0,NNE,5.8,-,N/A,,Scattered Clouds,30,2012-10-22 10:44:00
6:43 AM,78.8,71.6,78,29.88,7.0,North,5.8,-,N/A,,Scattered Clouds,10,2012-10-22 11:43:00
7:40 AM,77.0,73.4,89,29.91,7.0,NW,2.3,-,N/A,,Scattered Clouds,320,2012-10-22 12:40:00
8:43 AM,84.2,73.4,70,29.93,7.0,East,5.8,-,N/A,,Scattered Clouds,100,2012-10-22 13:43:00
9:52 AM,84.2,73.4,70,29.93,7.0,NE,4.6,-,N/A,,Scattered Clouds,40,2012-10-22 14:52:00
10:43 AM,86.0,75.2,70,29.94,7.0,East,10.4,-,N/A,,Mostly Cloudy,80,2012-10-22 15:43:00
11:47 AM,84.2,75.2,74,29.92,7.0,NNE,9.2,-,N/A,,Mostly Cloudy,20,2012-10-22 16:47:00
12:47 PM,86.0,71.6,62,29.90,7.0,NE,8.1,-,N/A,,Mostly Cloudy,50,2012-10-22 17:47:00
1:43 PM,86.0,71.6,62,29.88,7.0,NE,8.1,-,N/A,,Mostly Cloudy,40,2012-10-22 18:43:00
2:45 PM,86.0,73.4,66,29.86,7.0,NE,8.1,-,N/A,,Mostly Cloudy,50,2012-10-22 19:45:00
3:41 PM,82.4,75.2,79,29.84,7.0,NNE,5.8,-,N/A,,Mostly Cloudy,30,2012-10-22 20:41:00
4:41 PM,84.2,73.4,70,29.84,7.0,ENE,6.9,-,N/A,,Mostly Cloudy,70,2012-10-22 21:41:00
5:40 PM,82.4,73.4,74,29.85,7.0,NE,8.1,-,N/A,,Scattered Clouds,50,2012-10-22 22:40:00
6:40 PM,80.6,73.4,79,29.85,7.0,North,3.5,-,N/A,,Scattered Clouds,360,2012-10-22 23:40:00
7:40 PM,78.8,73.4,83,29.87,7.0,North,3.5,-,N/A,,Scattered Clouds,10,2012-10-23 00:40:00
8:40 PM,78.8,73.4,83,29.89,7.0,ENE,3.5,-,N/A,,Scattered Clouds,60,2012-10-23 01:40:00
9:42 PM,73.4,69.8,88,29.91,5.0,ESE,9.2,21.9,N/A,Rain,Light Rain,120,2012-10-23 02:42:00
10:43 PM,75.2,71.6,89,29.91,6.0,NE,8.1,-,N/A,,Mostly Cloudy,40,2012-10-23 03:43:00
11:43 PM,75.2,73.4,94,29.89,6.0,North,2.3,-,N/A,,Scattered Clouds,360,2012-10-23 04:43:00